This is the latest recevied weather packets stored in our database for station/object KF6YUA. If no packets are shown the sender has not sent any weather packets the latest 10 day(s).
| Time | Temp. | Humidity | Pressure | Rain* | Wind** | Luminosity | Snow |
|---|---|---|---|---|---|---|---|
| 1778002075 | 15.56° C | 79% | 1017.6 hPa | 0 mm | - | 217 W/m² | - |
| 1778001772 | 15° C | 78% | 1017.5 hPa | 0 mm | - | 212 W/m² | - |
| 1778001467 | 15° C | 79% | 1017.6 hPa | 0 mm | - | 180 W/m² | - |
| 1778001164 | 15° C | 81% | 1017.7 hPa | 0 mm | - | 158 W/m² | - |
| 1778000861 | 15° C | 81% | 1017.5 hPa | 0 mm | - | 141 W/m² | - |
| 1778000558 | 15° C | 80% | 1017.7 hPa | 0 mm | - | 169 W/m² | - |
| 1778000253 | 15° C | 81% | 1017.7 hPa | 0 mm | - | 161 W/m² | - |
| 1777999949 | 15° C | 80% | 1017.6 hPa | 0 mm | - | 172 W/m² | - |
| 1777999645 | 15° C | 81% | 1017.8 hPa | 0 mm | - | 150 W/m² | - |
| 1777999342 | 15° C | 79% | 1017.5 hPa | 0 mm | - | 153 W/m² | - |
| 1777999040 | 15° C | 79% | 1017.5 hPa | 0 mm | - | 223 W/m² | - |
| 1777998739 | 15.56° C | 81% | 1017.4 hPa | 0 mm | - | 229 W/m² | - |
| 1777998435 | 15° C | 82% | 1017.6 hPa | 0 mm | - | 221 W/m² | - |
| 1777998132 | 15° C | 85% | 1017.6 hPa | 0 mm | - | 254 W/m² | - |
| 1777997829 | 14.44° C | 83% | 1017.4 hPa | 0 mm | - | 206 W/m² | - |
| 1777997527 | 14.44° C | 84% | 1017.3 hPa | 0 mm | - | 295 W/m² | - |
| 1777997224 | 15° C | 86% | 1017.2 hPa | 0 mm | - | 302 W/m² | - |
| 1777996922 | 14.44° C | 85% | 1017.1 hPa | 0 mm | - | 261 W/m² | - |
| 1777996618 | 15° C | 87% | 1017.1 hPa | 0 mm | - | 287 W/m² | - |
| 1777996314 | 14.44° C | 89% | 1017.3 hPa | 0 mm | - | 185 W/m² | - |
| 1777996010 | 13.33° C | 88% | 1017.4 hPa | 0 mm | - | 197 W/m² | - |
| 1777995707 | 13.89° C | 90% | 1017.2 hPa | 0 mm | - | 168 W/m² | - |
| 1777995404 | 13.89° C | 91% | 1017.1 hPa | 0 mm | - | 194 W/m² | - |
| 1777995101 | 13.33° C | 90% | 1017.2 hPa | 0 mm | - | 184 W/m² | - |
| 1777994797 | 13.89° C | 94% | 1017.1 hPa | 0 mm | - | 170 W/m² | - |
* Rain latest hour (hover to see other rain measurements)
** Current wind speed in m/s (hover to see current wind gust speed)